STARLINK-35472, 65913

Orbit data source: Space-Track

STARLINK-35472, 65913 is a payload satellite owned by SpaceX/Seattle (US) in LEO that was launched on Wed, 08 Oct 2025 UTC via an FALCON 9 launch vehicle from the Air Force Western Test Range (AFWTR). Payload-class satellites include a variety of spacecraft equipped with specific instruments for various scientific and technological missions. These include communications satellites like Starlink; space stations such as the ISS; scientific satellites like the Hubble; Earth observation satellites from companies like Planet Labs, Umbra, and HawkEye 360; GPS; miniature CubeSats for education and research; and military/defense satellites.

Loading next visibility...
Identifier
65913, 2025-225D
Orbit
LEO
Country
Flag of USUS
Related business
Manufacturer
SpaceX/Seattle
Mission
Operational Commercial Communications
Bus & Motor
STARLINK V2MO, Unknown motor
Mass
575 kg wet, ~530 kg dry
Launch date (UTC)
2025-10-08 (8 months ago)
Launch vehicle
FALCON 9
Launch site
Air Force Western Test Range (AFWTR)
Object type
Payload
Rocket body
Debris
Shape & HBR
Box + 2 Pan, 17.7 m
Radar Cross Section
36.964 m², Large (>1 m²)

Expand to show TLE details & history
Last TLE update: 11 hours ago

TLE from 11 hours ago
0 STARLINK-35472
1 65913U 25225D   26151.29418255 -.02930476  00000-0 -12392+0 0  9990
2 65913  53.1585 142.1046 0029028 121.0441 239.3414 15.26376992 37056
Epoch: 2026-05-31T07:03Z
TLE epoch observation values (Epoch: 2026-05-31T07:03:37.372Z)
Latitude
0.00001°
Longitude
147.40096°
Altitude
497.756 km
Speed
7.611 km/s
True Right ascension
09h 28m 25s
True Declination
0° 00' 00"
Sunlit
Object was in daylight at epoch
Visualization orbit readout
Latitude
Unknown
Longitude
Unknown
Altitude
Unknown
Speed
Unknown
Apparent Right ascension
Unknown
Apparent Declination
Unknown
Sunlit
N/A
Visualization observer readout
Local Sidereal Time
03:17:58
Azimuth
Unknown
Elevation
Unknown
Doppler factor
Unknown
Orbital elements
Apogee altitude
506.838 km
Perigee altitude
466.982 km
Semi-major axis
6,865.047 km
Eccentricity
0.0029
Inclination
53.1585°
RAAN
142.1046°
Arg. of periapsis
121.0441°
True anomaly
239.05579°
Mean anomaly
239.3414°
Eccentric anomaly
239.19854°
Mean motion
3.81573 °/min
Orbital period
94.35 mins
BSTAR
-0.12392
Loading maneuver chart data...
Computing Atmospheric mass density...
Loading historical data...
Loading historical data...
Loading historical data...
Loading historical data...
Loading historical data...
Loading historical data...
Loading historical data...

Documentation

Showing up to 5 results
|